Time,TemperatureF,DewpointF,PressureIn,WindDirection,WindDirectionDegrees,WindSpeedMPH,WindSpeedGustMPH,Humidity,HourlyPrecipIn,Conditions,Clouds,dailyrainin,SoftwareType,DateUTC
2013-10-11 00:02:00,60.3,48.9,30.01,SSW,207,0.0,0.0,84,0.00,,,0.00,meteohub,2013-10-11 05:02:00,
2013-10-11 00:07:00,60.3,48.9,30.01,SSW,207,0.0,0.0,84,0.00,,,0.00,meteohub,2013-10-11 05:07:00,
2013-10-11 00:12:00,60.1,49.1,30.01,SSW,207,0.0,0.0,85,0.00,,,0.00,meteohub,2013-10-11 05:12:00,
2013-10-11 00:17:00,59.9,48.9,30.01,SSW,207,0.0,0.0,85,0.00,,,0.00,meteohub,2013-10-11 05:17:00,
2013-10-11 00:22:00,59.7,49.1,30.01,SSW,207,0.0,0.0,86,0.00,,,0.00,meteohub,2013-10-11 05:22:00,
2013-10-11 00:27:00,59.7,49.1,30.01,SSW,207,0.0,0.0,86,0.00,,,0.00,meteohub,2013-10-11 05:27:00,
2013-10-11 00:32:00,59.7,49.1,30.01,SSW,207,0.0,0.0,86,0.00,,,0.00,meteohub,2013-10-11 05:32:00,
2013-10-11 00:37:00,59.5,49.3,30.01,SSW,207,0.0,0.0,87,0.00,,,0.00,meteohub,2013-10-11 05:37:00,
2013-10-11 00:42:00,59.5,49.3,30.01,SSW,207,0.0,0.0,87,0.00,,,0.00,meteohub,2013-10-11 05:42:00,
2013-10-11 00:47:00,59.4,49.1,30.01,SSW,207,0.0,0.0,87,0.00,,,0.00,meteohub,2013-10-11 05:47:00,
2013-10-11 00:52:00,59.4,49.6,30.01,SSW,207,0.0,0.0,88,0.00,,,0.00,meteohub,2013-10-11 05:52:00,
2013-10-11 00:57:00,59.4,49.6,30.01,SSW,207,0.0,0.0,88,0.00,,,0.00,meteohub,2013-10-11 05:57:00,
2013-10-11 01:02:00,59.2,49.5,30.01,SSW,207,0.0,0.0,88,0.00,,,0.00,meteohub,2013-10-11 06:02:00,
2013-10-11 01:07:00,59.2,49.8,30.01,SSW,207,0.0,0.0,89,0.00,,,0.00,meteohub,2013-10-11 06:07:00,
2013-10-11 01:12:00,59.2,49.8,30.01,SSW,207,0.0,0.0,89,0.00,,,0.00,meteohub,2013-10-11 06:12:00,
2013-10-11 01:17:00,59.0,49.6,30.01,SSW,207,0.0,0.0,89,0.00,,,0.00,meteohub,2013-10-11 06:17:00,
2013-10-11 01:22:00,59.0,49.6,30.01,SSW,207,0.0,0.0,89,0.00,,,0.00,meteohub,2013-10-11 06:22:00,
2013-10-11 01:27:00,59.0,50.0,30.01,SSW,207,0.0,0.0,90,0.00,,,0.00,meteohub,2013-10-11 06:27:00,
2013-10-11 01:32:00,58.8,49.8,30.01,SSW,207,0.0,0.0,90,0.00,,,0.00,meteohub,2013-10-11 06:32:00,
2013-10-11 01:37:00,58.8,49.8,30.01,SSW,207,0.0,0.0,90,0.00,,,0.00,meteohub,2013-10-11 06:37:00,
2013-10-11 01:42:00,58.8,50.2,30.01,SSW,207,0.0,0.0,91,0.00,,,0.00,meteohub,2013-10-11 06:42:00,
2013-10-11 01:47:00,58.6,50.0,30.01,SSW,207,0.0,0.0,91,0.00,,,0.00,meteohub,2013-10-11 06:47:00,
2013-10-11 01:52:00,58.6,50.0,30.01,SSW,207,0.0,0.0,91,0.00,,,0.00,meteohub,2013-10-11 06:52:00,
2013-10-11 01:57:00,58.6,50.4,30.01,SSW,207,0.0,0.0,92,0.00,,,0.00,meteohub,2013-10-11 06:57:00,
2013-10-11 02:02:00,58.5,50.2,30.01,SSW,207,0.0,0.0,92,0.00,,,0.00,meteohub,2013-10-11 07:02:00,
2013-10-11 02:07:00,58.3,50.0,30.01,SSW,207,0.0,0.0,92,0.00,,,0.00,meteohub,2013-10-11 07:07:00,
2013-10-11 02:12:00,58.3,50.0,30.01,SSW,207,0.0,0.0,92,0.00,,,0.00,meteohub,2013-10-11 07:12:00,
2013-10-11 02:17:00,58.3,50.0,30.01,SSW,207,0.0,0.0,92,0.00,,,0.00,meteohub,2013-10-11 07:17:00,
2013-10-11 02:22:00,58.1,49.8,30.01,SSW,207,0.0,0.0,92,0.00,,,0.00,meteohub,2013-10-11 07:22:00,
2013-10-11 02:27:00,58.1,49.8,30.01,SSW,207,0.0,0.0,92,0.00,,,0.00,meteohub,2013-10-11 07:27:00,
2013-10-11 02:32:00,58.1,50.2,30.01,SSW,207,0.0,0.0,93,0.00,,,0.00,meteohub,2013-10-11 07:32:00,
2013-10-11 02:37:00,58.1,50.2,30.01,SSW,207,0.0,0.0,93,0.00,,,0.00,meteohub,2013-10-11 07:37:00,
2013-10-11 02:42:00,58.1,50.2,30.01,SSW,207,0.0,0.0,93,0.00,,,0.00,meteohub,2013-10-11 07:42:00,
2013-10-11 02:47:00,58.1,50.2,30.01,SSW,207,0.0,0.0,93,0.00,,,0.00,meteohub,2013-10-11 07:47:00,
2013-10-11 02:52:00,58.1,50.5,30.01,SSW,207,0.0,0.0,94,0.00,,,0.00,meteohub,2013-10-11 07:52:00,
2013-10-11 02:57:00,58.1,50.5,30.01,SSW,207,0.0,0.0,94,0.00,,,0.00,meteohub,2013-10-11 07:57:00,
2013-10-11 03:02:00,58.1,50.5,30.01,SSW,207,0.0,0.0,94,0.00,,,0.00,meteohub,2013-10-11 08:02:00,
2013-10-11 03:07:00,58.1,50.5,30.01,SSW,207,0.0,0.0,94,0.00,,,0.00,meteohub,2013-10-11 08:07:00,
2013-10-11 03:12:00,57.9,50.4,30.01,SSW,207,0.0,0.0,94,0.00,,,0.00,meteohub,2013-10-11 08:12:00,
2013-10-11 03:17:00,57.9,50.7,30.01,SSW,207,0.0,0.0,95,0.00,,,0.00,meteohub,2013-10-11 08:17:00,
2013-10-11 03:22:00,57.9,50.7,30.01,SSW,207,0.0,0.0,95,0.00,,,0.00,meteohub,2013-10-11 08:22:00,
2013-10-11 03:27:00,57.9,50.7,30.01,SSW,207,0.0,0.0,95,0.00,,,0.00,meteohub,2013-10-11 08:27:00,
2013-10-11 03:32:00,57.7,50.5,30.01,SSW,207,0.0,0.0,95,0.00,,,0.00,meteohub,2013-10-11 08:32:00,
2013-10-11 03:37:00,57.7,50.5,30.01,SSW,207,0.0,0.0,95,0.00,,,0.00,meteohub,2013-10-11 08:37:00,
2013-10-11 03:42:00,57.7,50.5,30.01,SSW,207,0.0,0.0,95,0.00,,,0.00,meteohub,2013-10-11 08:42:00,
2013-10-11 03:47:00,57.6,50.4,30.01,SSW,207,0.0,0.0,95,0.00,,,0.00,meteohub,2013-10-11 08:47:00,
2013-10-11 03:52:00,57.6,50.4,30.01,SSW,207,0.0,0.0,95,0.00,,,0.00,meteohub,2013-10-11 08:52:00,
2013-10-11 03:57:00,57.6,50.7,30.01,SSW,207,0.0,0.0,96,0.00,,,0.00,meteohub,2013-10-11 08:57:00,
2013-10-11 04:02:00,57.4,50.5,30.01,SSW,207,0.0,0.0,96,0.00,,,0.00,meteohub,2013-10-11 09:02:00,
2013-10-11 04:07:00,57.4,50.5,30.01,SSW,207,0.0,0.0,96,0.00,,,0.00,meteohub,2013-10-11 09:07:00,
2013-10-11 04:12:00,57.2,50.4,30.01,SSW,207,0.0,0.0,96,0.00,,,0.00,meteohub,2013-10-11 09:12:00,
2013-10-11 04:17:00,57.2,50.4,30.01,SSW,207,0.0,0.0,96,0.00,,,0.00,meteohub,2013-10-11 09:17:00,
2013-10-11 04:22:00,57.2,50.4,30.01,SSW,207,0.0,0.0,96,0.00,,,0.00,meteohub,2013-10-11 09:22:00,
2013-10-11 04:27:00,57.0,50.2,30.01,SSW,207,0.0,0.0,96,0.00,,,0.00,meteohub,2013-10-11 09:27:00,
2013-10-11 04:32:00,57.0,50.2,30.01,SSW,207,0.0,0.0,96,0.00,,,0.00,meteohub,2013-10-11 09:32:00,
2013-10-11 04:37:00,57.0,50.5,30.04,SSW,207,0.0,0.0,97,0.00,,,0.00,meteohub,2013-10-11 09:37:00,
2013-10-11 04:42:00,57.0,50.5,30.04,SSW,207,0.0,0.0,97,0.00,,,0.00,meteohub,2013-10-11 09:42:00,
2013-10-11 04:47:00,57.0,50.5,30.04,SSW,207,0.0,0.0,97,0.00,,,0.00,meteohub,2013-10-11 09:47:00,
2013-10-11 04:52:00,57.0,50.5,30.04,SSW,207,0.0,0.0,97,0.00,,,0.00,meteohub,2013-10-11 09:52:00,
2013-10-11 04:57:00,57.2,50.7,30.04,SSW,207,0.0,0.0,97,0.00,,,0.00,meteohub,2013-10-11 09:57:00,
2013-10-11 05:02:00,57.2,50.7,30.04,SSW,207,0.0,0.0,97,0.00,,,0.00,meteohub,2013-10-11 10:02:00,
2013-10-11 05:07:00,57.4,51.3,30.04,SSW,207,0.0,0.0,98,0.00,,,0.00,meteohub,2013-10-11 10:07:00,
2013-10-11 05:12:00,57.4,51.3,30.04,SSW,207,0.0,0.0,98,0.00,,,0.00,meteohub,2013-10-11 10:12:00,
2013-10-11 05:17:00,57.6,51.4,30.04,SSW,207,0.0,0.0,98,0.00,,,0.00,meteohub,2013-10-11 10:17:00,
2013-10-11 05:22:00,57.6,51.4,30.04,SSW,207,0.0,0.0,98,0.00,,,0.00,meteohub,2013-10-11 10:22:00,
2013-10-11 05:27:00,57.6,51.8,30.04,South,189,0.0,0.0,99,0.00,,,0.00,meteohub,2013-10-11 10:27:00,
2013-10-11 05:32:00,57.7,52.0,30.04,South,189,0.0,0.0,99,0.00,,,0.00,meteohub,2013-10-11 10:32:00,
2013-10-11 05:37:00,57.7,52.0,30.04,South,189,0.0,0.0,99,0.00,,,0.00,meteohub,2013-10-11 10:37:00,
2013-10-11 05:42:00,57.7,52.0,30.04,South,189,0.0,0.0,99,0.00,,,0.00,meteohub,2013-10-11 10:42:00,
2013-10-11 05:47:00,57.7,52.0,30.04,South,189,0.0,0.0,99,0.00,,,0.00,meteohub,2013-10-11 10:47:00,
2013-10-11 05:52:00,57.7,52.0,30.04,South,189,0.0,0.0,99,0.00,,,0.00,meteohub,2013-10-11 10:52:00,
2013-10-11 05:57:00,57.7,52.0,30.04,South,189,0.0,0.0,99,0.00,,,0.00,meteohub,2013-10-11 10:57:00,
2013-10-11 06:02:00,57.6,51.8,30.04,West,261,0.0,0.0,99,0.00,,,0.00,meteohub,2013-10-11 11:02:00,
2013-10-11 06:07:00,57.6,52.2,30.04,WSW,253,0.0,0.0,100,0.00,,,0.00,meteohub,2013-10-11 11:07:00,
2013-10-11 06:12:00,57.6,52.2,30.04,WSW,253,0.0,0.0,100,0.00,,,0.00,meteohub,2013-10-11 11:12:00,
2013-10-11 06:17:00,57.6,52.2,30.04,WSW,253,0.0,0.0,100,0.00,,,0.00,meteohub,2013-10-11 11:17:00,
2013-10-11 06:22:00,57.6,52.2,30.04,WSW,253,0.0,0.0,100,0.00,,,0.00,meteohub,2013-10-11 11:22:00,
2013-10-11 06:27:00,57.6,52.2,30.04,WSW,253,0.0,0.0,100,0.00,,,0.00,meteohub,2013-10-11 11:27:00,
2013-10-11 06:32:00,57.6,52.2,30.04,WSW,253,0.0,0.0,100,0.00,,,0.00,meteohub,2013-10-11 11:32:00,
2013-10-11 06:37:00,57.4,52.0,30.04,WSW,253,0.0,0.0,100,0.00,,,0.00,meteohub,2013-10-11 11:37:00,
2013-10-11 06:42:00,57.6,52.5,30.04,WSW,253,0.0,0.0,100,0.00,,,0.00,meteohub,2013-10-11 11:42:00,
2013-10-11 06:47:00,57.6,52.5,30.04,WSW,253,0.0,0.0,100,0.00,,,0.00,meteohub,2013-10-11 11:47:00,
2013-10-11 06:52:00,57.4,52.3,30.04,WSW,253,0.0,0.0,100,0.00,,,0.00,meteohub,2013-10-11 11:52:00,
2013-10-11 06:57:00,57.4,52.3,30.04,WSW,253,0.0,0.0,100,0.00,,,0.00,meteohub,2013-10-11 11:57:00,
2013-10-11 07:02:00,57.4,52.3,30.04,WSW,253,0.0,0.0,100,0.00,,,0.00,meteohub,2013-10-11 12:02:00,
2013-10-11 07:07:00,57.4,52.3,30.04,WSW,253,0.0,0.0,100,0.00,,,0.00,meteohub,2013-10-11 12:07:00,
2013-10-11 07:12:00,57.4,52.3,30.04,WSW,253,0.0,0.0,100,0.00,,,0.00,meteohub,2013-10-11 12:12:00,
2013-10-11 07:17:00,57.4,52.3,30.04,WSW,253,0.0,0.0,100,0.00,,,0.00,meteohub,2013-10-11 12:17:00,
2013-10-11 07:22:00,57.4,52.5,30.04,WSW,253,0.0,0.0,100,0.00,,,0.00,meteohub,2013-10-11 12:22:00,
2013-10-11 07:27:00,57.6,52.7,30.04,WSW,253,0.0,0.0,100,0.00,,,0.00,meteohub,2013-10-11 12:27:00,
2013-10-11 07:32:00,57.6,52.7,30.04,WSW,253,0.0,0.0,100,0.00,,,0.00,meteohub,2013-10-11 12:32:00,
2013-10-11 07:37:00,57.6,52.7,30.04,WSW,253,0.0,0.0,100,0.00,,,0.00,meteohub,2013-10-11 12:37:00,
2013-10-11 07:42:00,57.6,52.7,30.04,WSW,253,0.0,0.0,100,0.00,,,0.00,meteohub,2013-10-11 12:42:00,
2013-10-11 07:47:00,57.6,52.7,30.04,WSW,253,0.0,0.0,100,0.00,,,0.00,meteohub,2013-10-11 12:47:00,
2013-10-11 07:52:00,57.7,52.9,30.04,WSW,253,0.0,0.0,100,0.00,,,0.00,meteohub,2013-10-11 12:52:00,
2013-10-11 07:57:00,57.9,53.1,30.04,WSW,253,0.0,0.0,100,0.00,,,0.00,meteohub,2013-10-11 12:57:00,
2013-10-11 08:02:00,58.1,53.6,30.04,WSW,253,0.0,0.0,100,0.00,,,0.00,meteohub,2013-10-11 13:02:00,
2013-10-11 08:07:00,58.3,53.8,30.04,WSW,253,0.0,0.0,100,0.00,,,0.00,meteohub,2013-10-11 13:07:00,
2013-10-11 08:12:00,58.6,54.5,30.04,WSW,249,0.0,0.0,100,0.00,,,0.00,meteohub,2013-10-11 13:12:00,
2013-10-11 08:17:00,58.8,54.7,30.04,SSW,204,0.0,0.0,100,0.00,,,0.00,meteohub,2013-10-11 13:17:00,
2013-10-11 08:22:00,59.2,55.4,30.04,South,181,0.0,0.0,100,0.00,,,0.00,meteohub,2013-10-11 13:22:00,
2013-10-11 08:27:00,59.5,55.9,30.04,SSW,195,0.0,0.0,100,0.00,,,0.00,meteohub,2013-10-11 13:27:00,
2013-10-11 08:32:00,59.9,56.7,30.04,SSW,210,0.0,0.0,100,0.00,,,0.00,meteohub,2013-10-11 13:32:00,
2013-10-11 08:37:00,60.4,57.7,30.04,South,185,0.0,0.0,100,0.00,,,0.00,meteohub,2013-10-11 13:37:00,
2013-10-11 08:43:00,60.6,58.3,30.04,South,185,0.0,0.0,100,0.00,,,0.00,meteohub,2013-10-11 13:43:00,
2013-10-11 08:48:00,60.8,58.5,30.04,SSW,202,0.0,0.0,100,0.00,,,0.00,meteohub,2013-10-11 13:48:00,
2013-10-11 08:53:00,61.0,58.6,30.04,SSW,202,0.0,0.0,100,0.00,,,0.00,meteohub,2013-10-11 13:53:00,
2013-10-11 08:58:00,61.3,59.0,30.04,SSW,207,0.0,0.0,100,0.00,,,0.00,meteohub,2013-10-11 13:58:00,
2013-10-11 09:03:00,61.7,59.4,30.04,SSW,197,5.0,5.0,100,0.00,,,0.00,meteohub,2013-10-11 14:03:00,
2013-10-11 09:08:00,62.1,59.4,30.04,SW,220,3.0,6.0,100,0.00,,,0.00,meteohub,2013-10-11 14:08:00,
2013-10-11 09:13:00,62.4,59.7,30.04,South,170,0.0,6.0,100,0.00,,,0.00,meteohub,2013-10-11 14:13:00,
2013-10-11 09:18:00,62.6,59.0,30.04,SSW,207,0.0,6.0,100,0.00,,,0.00,meteohub,2013-10-11 14:18:00,
2013-10-11 09:23:00,63.0,57.7,30.04,SSW,210,4.0,6.0,100,0.00,,,0.00,meteohub,2013-10-11 14:23:00,
2013-10-11 09:28:00,63.1,56.8,30.04,South,190,4.0,4.0,98,0.00,,,0.00,meteohub,2013-10-11 14:28:00,
2013-10-11 09:33:00,63.5,56.5,30.04,SSW,212,6.0,6.0,96,0.00,,,0.00,meteohub,2013-10-11 14:33:00,
2013-10-11 09:38:00,64.0,57.0,30.04,SSE,166,0.0,6.0,96,0.00,,,0.00,meteohub,2013-10-11 14:38:00,
2013-10-11 09:43:00,64.6,55.0,30.04,SSW,200,5.0,6.0,89,0.00,,,0.00,meteohub,2013-10-11 14:43:00,
2013-10-11 09:48:00,65.3,55.2,30.04,SSW,204,4.0,8.0,88,0.00,,,0.00,meteohub,2013-10-11 14:48:00,
2013-10-11 09:54:00,65.8,55.4,30.04,SW,214,4.0,8.0,87,0.00,,,0.00,meteohub,2013-10-11 14:54:00,
2013-10-11 09:59:00,66.0,54.0,30.04,South,188,5.0,8.0,83,0.00,,,0.00,meteohub,2013-10-11 14:59:00,
2013-10-11 10:04:00,66.6,52.7,30.04,SSW,206,3.0,8.0,79,0.00,,,0.00,meteohub,2013-10-11 15:04:00,
2013-10-11 10:09:00,67.5,55.2,30.04,SSW,197,0.0,8.0,83,0.00,,,0.00,meteohub,2013-10-11 15:09:00,
2013-10-11 10:14:00,68.4,51.1,30.04,SW,224,5.0,8.0,72,0.00,,,0.00,meteohub,2013-10-11 15:14:00,
2013-10-11 10:19:00,69.4,51.1,30.04,SSW,205,3.0,8.0,70,0.00,,,0.00,meteohub,2013-10-11 15:19:00,
2013-10-11 10:24:00,70.3,50.9,30.04,South,170,3.0,6.0,68,0.00,,,0.00,meteohub,2013-10-11 15:24:00,
2013-10-11 10:29:00,71.2,49.5,30.04,SSW,203,3.0,5.0,64,0.00,,,0.00,meteohub,2013-10-11 15:29:00,
2013-10-11 10:34:00,72.1,47.8,30.04,SSW,210,4.0,8.0,60,0.00,,,0.00,meteohub,2013-10-11 15:34:00,
2013-10-11 10:39:00,72.7,48.9,30.04,South,174,3.0,9.0,61,0.00,,,0.00,meteohub,2013-10-11 15:39:00,
2013-10-11 10:44:00,73.6,49.1,30.04,SSW,213,8.0,9.0,60,0.00,,,0.00,meteohub,2013-10-11 15:44:00,
2013-10-11 10:49:00,74.1,47.7,30.04,South,191,0.0,9.0,57,0.00,,,0.00,meteohub,2013-10-11 15:49:00,
2013-10-11 10:54:00,75.0,45.5,30.04,WSW,253,5.0,8.0,53,0.00,,,0.00,meteohub,2013-10-11 15:54:00,
2013-10-11 10:59:00,75.4,45.1,30.04,South,179,6.0,8.0,52,0.00,,,0.00,meteohub,2013-10-11 15:59:00,
2013-10-11 11:05:00,76.1,45.7,30.04,SW,228,6.0,8.0,52,0.00,,,0.00,meteohub,2013-10-11 16:05:00,
2013-10-11 11:10:00,76.8,44.8,30.04,South,176,5.0,8.0,50,0.00,,,0.00,meteohub,2013-10-11 16:10:00,
2013-10-11 11:15:00,77.5,45.3,30.04,South,171,8.0,9.0,50,0.00,,,0.00,meteohub,2013-10-11 16:15:00,
2013-10-11 11:20:00,77.7,45.5,30.04,SSW,192,0.0,8.0,50,0.00,,,0.00,meteohub,2013-10-11 16:20:00,
2013-10-11 11:25:00,78.4,45.3,30.04,NE,34,0.0,8.0,49,0.00,,,0.00,meteohub,2013-10-11 16:25:00,
2013-10-11 11:30:00,78.8,45.7,30.04,SSW,197,4.0,8.0,49,0.00,,,0.00,meteohub,2013-10-11 16:30:00,
2013-10-11 11:35:00,79.5,45.3,30.01,SSE,157,5.0,8.0,48,0.00,,,0.00,meteohub,2013-10-11 16:35:00,
2013-10-11 11:40:00,78.4,45.3,30.01,SSW,205,4.0,11.0,49,0.00,,,0.00,meteohub,2013-10-11 16:40:00,
2013-10-11 11:45:00,78.4,44.4,30.01,South,169,6.0,11.0,48,0.00,,,0.00,meteohub,2013-10-11 16:45:00,
2013-10-11 11:50:00,78.1,44.1,30.01,WSW,238,5.0,11.0,48,0.00,,,0.00,meteohub,2013-10-11 16:50:00,
2013-10-11 11:55:00,78.3,44.2,30.01,South,170,5.0,10.0,48,0.00,,,0.00,meteohub,2013-10-11 16:55:00,
2013-10-11 12:00:00,79.2,42.3,30.01,SSE,167,5.0,10.0,45,0.00,,,0.00,meteohub,2013-10-11 17:00:00,
2013-10-11 12:05:00,79.5,42.6,30.01,SSE,163,8.0,11.0,45,0.00,,,0.00,meteohub,2013-10-11 17:05:00,
2013-10-11 12:10:00,79.9,41.9,30.01,West,259,9.0,11.0,44,0.00,,,0.00,meteohub,2013-10-11 17:10:00,
2013-10-11 12:16:00,80.2,41.2,30.01,SW,214,8.0,10.0,43,0.00,,,0.00,meteohub,2013-10-11 17:16:00,
2013-10-11 12:21:00,80.2,41.2,30.01,South,181,4.0,11.0,43,0.00,,,0.00,meteohub,2013-10-11 17:21:00,
2013-10-11 12:26:00,79.5,38.5,30.01,SE,144,3.0,11.0,41,0.00,,,0.00,meteohub,2013-10-11 17:26:00,
2013-10-11 12:31:00,79.2,40.3,30.01,SSW,203,5.0,11.0,43,0.00,,,0.00,meteohub,2013-10-11 17:31:00,
2013-10-11 12:36:00,79.7,39.7,30.01,ESE,121,3.0,13.0,42,0.00,,,0.00,meteohub,2013-10-11 17:36:00,
2013-10-11 12:41:00,80.2,39.0,30.01,South,170,5.0,13.0,41,0.00,,,0.00,meteohub,2013-10-11 17:41:00,
2013-10-11 12:46:00,81.0,38.5,30.01,South,179,3.0,13.0,40,0.00,,,0.00,meteohub,2013-10-11 17:46:00,
2013-10-11 12:51:00,81.3,37.6,30.01,SW,231,3.0,9.0,39,0.00,,,0.00,meteohub,2013-10-11 17:51:00,
2013-10-11 12:56:00,82.4,37.2,30.01,South,177,8.0,9.0,38,0.00,,,0.00,meteohub,2013-10-11 17:56:00,
2013-10-11 13:01:00,82.4,37.2,30.01,WSW,240,5.0,11.0,38,0.00,,,0.00,meteohub,2013-10-11 18:01:00,
2013-10-11 13:06:00,82.2,38.5,29.98,SW,221,4.0,11.0,39,0.00,,,0.00,meteohub,2013-10-11 18:06:00,
2013-10-11 13:11:00,81.7,39.2,29.98,South,188,0.0,11.0,40,0.00,,,0.00,meteohub,2013-10-11 18:11:00,
2013-10-11 13:16:00,82.0,38.3,29.98,ESE,122,3.0,11.0,39,0.00,,,0.00,meteohub,2013-10-11 18:16:00,
2013-10-11 13:21:00,82.6,37.4,29.98,South,180,6.0,8.0,38,0.00,,,0.00,meteohub,2013-10-11 18:21:00,
2013-10-11 13:26:00,82.8,37.6,29.98,SSE,155,3.0,8.0,38,0.00,,,0.00,meteohub,2013-10-11 18:26:00,
2013-10-11 13:32:00,82.6,37.4,29.98,SW,225,4.0,8.0,38,0.00,,,0.00,meteohub,2013-10-11 18:32:00,
2013-10-11 13:37:00,83.5,38.1,29.98,ESE,111,4.0,8.0,38,0.00,,,0.00,meteohub,2013-10-11 18:37:00,
2013-10-11 13:42:00,83.7,37.0,29.98,SW,236,6.0,8.0,37,0.00,,,0.00,meteohub,2013-10-11 18:42:00,
2013-10-11 13:47:00,83.1,36.7,29.98,ESE,108,3.0,8.0,37,0.00,,,0.00,meteohub,2013-10-11 18:47:00,
2013-10-11 13:52:00,82.9,37.8,29.98,SE,135,0.0,10.0,38,0.00,,,0.00,meteohub,2013-10-11 18:52:00,
2013-10-11 13:57:00,82.8,36.3,29.98,SSE,165,3.0,10.0,37,0.00,,,0.00,meteohub,2013-10-11 18:57:00,
2013-10-11 14:02:00,82.4,36.0,29.98,SE,144,4.0,8.0,37,0.00,,,0.00,meteohub,2013-10-11 19:02:00,
2013-10-11 14:07:00,81.9,36.9,29.95,SSW,207,5.0,8.0,38,0.00,,,0.00,meteohub,2013-10-11 19:07:00,
2013-10-11 14:12:00,81.3,36.5,29.95,SSW,212,4.0,9.0,38,0.00,,,0.00,meteohub,2013-10-11 19:12:00,
2013-10-11 14:17:00,81.0,36.1,29.95,West,281,5.0,9.0,38,0.00,,,0.00,meteohub,2013-10-11 19:17:00,
2013-10-11 14:22:00,81.0,36.1,29.95,SW,218,8.0,9.0,38,0.00,,,0.00,meteohub,2013-10-11 19:22:00,
2013-10-11 14:27:00,80.8,36.0,29.95,SE,124,4.0,11.0,38,0.00,,,0.00,meteohub,2013-10-11 19:27:00,
2013-10-11 14:32:00,80.8,36.0,29.95,WSW,247,3.0,11.0,38,0.00,,,0.00,meteohub,2013-10-11 19:32:00,
2013-10-11 14:37:00,80.6,35.8,29.95,SSE,166,0.0,11.0,38,0.00,,,0.00,meteohub,2013-10-11 19:37:00,
2013-10-11 14:42:00,80.8,34.7,29.95,South,183,8.0,10.0,37,0.00,,,0.00,meteohub,2013-10-11 19:42:00,
2013-10-11 14:47:00,80.4,35.6,29.95,South,170,10.0,11.0,38,0.00,,,0.00,meteohub,2013-10-11 19:47:00,
2013-10-11 14:52:00,80.4,35.6,29.95,SSW,197,6.0,12.0,38,0.00,,,0.00,meteohub,2013-10-11 19:52:00,
2013-10-11 14:57:00,80.4,35.6,29.95,SSW,204,2.0,12.0,38,0.00,,,0.00,meteohub,2013-10-11 19:57:00,
2013-10-11 15:02:00,80.6,35.8,29.95,SSE,151,3.0,11.0,38,0.00,,,0.00,meteohub,2013-10-11 20:02:00,
2013-10-11 15:07:00,80.6,35.8,29.95,South,181,4.0,11.0,38,0.00,,,0.00,meteohub,2013-10-11 20:07:00,
2013-10-11 15:12:00,80.4,35.6,29.95,SE,131,0.0,11.0,38,0.00,,,0.00,meteohub,2013-10-11 20:12:00,
2013-10-11 15:17:00,80.8,36.0,29.95,SSW,193,9.0,9.0,38,0.00,,,0.00,meteohub,2013-10-11 20:17:00,
2013-10-11 15:22:00,81.0,36.1,29.92,South,191,6.0,9.0,38,0.00,,,0.00,meteohub,2013-10-11 20:22:00,
2013-10-11 15:27:00,81.1,36.3,29.92,SW,229,3.0,11.0,38,0.00,,,0.00,meteohub,2013-10-11 20:27:00,
2013-10-11 15:32:00,81.5,36.5,29.92,SW,222,4.0,11.0,38,0.00,,,0.00,meteohub,2013-10-11 20:32:00,
2013-10-11 15:37:00,81.9,36.9,29.92,ESE,109,4.0,11.0,38,0.00,,,0.00,meteohub,2013-10-11 20:37:00,
2013-10-11 15:42:00,82.2,35.8,29.92,South,181,5.0,11.0,37,0.00,,,0.00,meteohub,2013-10-11 20:42:00,
2013-10-11 15:47:00,82.0,37.0,29.92,SSW,205,3.0,11.0,38,0.00,,,0.00,meteohub,2013-10-11 20:47:00,
2013-10-11 15:52:00,82.2,37.2,29.92,SE,135,3.0,11.0,38,0.00,,,0.00,meteohub,2013-10-11 20:52:00,
2013-10-11 15:57:00,82.6,36.1,29.92,SSW,203,4.0,8.0,37,0.00,,,0.00,meteohub,2013-10-11 20:57:00,
2013-10-11 16:02:00,82.0,35.8,29.92,SSE,157,6.0,9.0,37,0.00,,,0.00,meteohub,2013-10-11 21:02:00,
2013-10-11 16:07:00,81.9,35.6,29.92,SSW,203,4.0,9.0,37,0.00,,,0.00,meteohub,2013-10-11 21:07:00,
2013-10-11 16:12:00,81.7,36.7,29.92,South,190,6.0,11.0,38,0.00,,,0.00,meteohub,2013-10-11 21:12:00,
2013-10-11 16:17:00,81.1,36.3,29.92,South,181,8.0,11.0,38,0.00,,,0.00,meteohub,2013-10-11 21:17:00,
2013-10-11 16:22:00,81.0,36.1,29.92,South,187,8.0,13.0,38,0.00,,,0.00,meteohub,2013-10-11 21:22:00,
2013-10-11 16:27:00,80.4,35.6,29.92,SE,137,0.0,13.0,38,0.00,,,0.00,meteohub,2013-10-11 21:27:00,
2013-10-11 16:32:00,80.1,35.4,29.92,SW,233,6.0,11.0,38,0.00,,,0.00,meteohub,2013-10-11 21:32:00,
2013-10-11 16:37:00,79.5,34.9,29.92,WSW,240,2.0,10.0,38,0.00,,,0.00,meteohub,2013-10-11 21:37:00,
2013-10-11 16:42:00,79.2,35.8,29.92,West,261,5.0,9.0,39,0.00,,,0.00,meteohub,2013-10-11 21:42:00,
2013-10-11 16:47:00,78.6,35.4,29.92,West,265,3.0,11.0,39,0.00,,,0.00,meteohub,2013-10-11 21:47:00,
2013-10-11 16:52:00,78.3,35.1,29.92,SSE,168,3.0,11.0,39,0.00,,,0.00,meteohub,2013-10-11 21:52:00,
2013-10-11 16:57:00,77.9,34.9,29.92,SSW,195,0.0,13.0,39,0.00,,,0.00,meteohub,2013-10-11 21:57:00,
2013-10-11 17:02:00,77.5,34.5,29.92,SSW,205,6.0,13.0,39,0.00,,,0.00,meteohub,2013-10-11 22:02:00,
2013-10-11 17:07:00,77.5,34.5,29.92,SSW,200,3.0,13.0,39,0.00,,,0.00,meteohub,2013-10-11 22:07:00,
2013-10-11 17:12:00,77.5,34.5,29.92,WSW,252,8.0,15.0,39,0.00,,,0.00,meteohub,2013-10-11 22:12:00,
2013-10-11 17:17:00,77.7,34.7,29.92,South,185,3.0,15.0,39,0.00,,,0.00,meteohub,2013-10-11 22:17:00,
2013-10-11 17:22:00,77.9,34.9,29.92,SSW,200,4.0,15.0,39,0.00,,,0.00,meteohub,2013-10-11 22:22:00,
2013-10-11 17:27:00,77.9,34.9,29.92,South,191,8.0,11.0,39,0.00,,,0.00,meteohub,2013-10-11 22:27:00,
2013-10-11 17:32:00,77.7,34.7,29.92,SSW,192,3.0,8.0,39,0.00,,,0.00,meteohub,2013-10-11 22:32:00,
2013-10-11 17:37:00,77.4,34.3,29.95,SSE,160,8.0,10.0,39,0.00,,,0.00,meteohub,2013-10-11 22:37:00,
2013-10-11 17:42:00,76.8,35.1,29.95,SW,214,8.0,10.0,40,0.00,,,0.00,meteohub,2013-10-11 22:42:00,
2013-10-11 17:47:00,76.5,36.0,29.95,South,188,5.0,10.0,41,0.00,,,0.00,meteohub,2013-10-11 22:47:00,
2013-10-11 17:52:00,75.9,36.5,29.95,SSW,209,5.0,9.0,42,0.00,,,0.00,meteohub,2013-10-11 22:52:00,
2013-10-11 17:57:00,75.6,36.3,29.95,SSW,196,3.0,8.0,42,0.00,,,0.00,meteohub,2013-10-11 22:57:00,
2013-10-11 18:02:00,75.2,37.0,29.95,SSW,209,3.0,8.0,43,0.00,,,0.00,meteohub,2013-10-11 23:02:00,
2013-10-11 18:07:00,74.8,36.7,29.95,SSW,213,8.0,8.0,43,0.00,,,0.00,meteohub,2013-10-11 23:07:00,
2013-10-11 18:12:00,74.3,37.2,29.95,South,178,5.0,8.0,44,0.00,,,0.00,meteohub,2013-10-11 23:12:00,
2013-10-11 18:17:00,74.1,37.0,29.95,South,189,3.0,9.0,44,0.00,,,0.00,meteohub,2013-10-11 23:17:00,
2013-10-11 18:22:00,73.8,37.8,29.95,SSW,193,2.0,9.0,45,0.00,,,0.00,meteohub,2013-10-11 23:22:00,
2013-10-11 18:27:00,73.4,38.3,29.95,South,184,5.0,9.0,46,0.00,,,0.00,meteohub,2013-10-11 23:27:00,
2013-10-11 18:32:00,73.2,39.0,29.95,South,176,0.0,6.0,47,0.00,,,0.00,meteohub,2013-10-11 23:32:00,
2013-10-11 18:37:00,72.9,38.7,29.95,South,183,4.0,6.0,47,0.00,,,0.00,meteohub,2013-10-11 23:37:00,
2013-10-11 18:42:00,72.5,39.4,29.95,SSE,167,6.0,6.0,48,0.00,,,0.00,meteohub,2013-10-11 23:42:00,
2013-10-11 18:47:00,72.3,39.9,29.95,SSW,199,3.0,6.0,49,0.00,,,0.00,meteohub,2013-10-11 23:47:00,
2013-10-11 18:52:00,72.1,39.9,29.95,SSW,192,0.0,6.0,49,0.00,,,0.00,meteohub,2013-10-11 23:52:00,
2013-10-11 18:57:00,71.8,39.6,29.95,South,190,4.0,6.0,49,0.00,,,0.00,meteohub,2013-10-11 23:57:00,
2013-10-11 19:02:00,71.6,40.1,29.95,South,185,0.0,7.0,50,0.00,,,0.00,meteohub,2013-10-12 00:02:00,
2013-10-11 19:07:00,71.4,40.1,29.95,SSE,154,0.0,7.0,50,0.00,,,0.00,meteohub,2013-10-12 00:07:00,
2013-10-11 19:12:00,71.2,39.9,29.95,South,182,3.0,6.0,50,0.00,,,0.00,meteohub,2013-10-12 00:12:00,
2013-10-11 19:17:00,71.1,40.5,29.95,SSW,213,0.0,5.0,51,0.00,,,0.00,meteohub,2013-10-12 00:17:00,
2013-10-11 19:22:00,70.7,40.1,29.95,SSW,211,4.0,5.0,51,0.00,,,0.00,meteohub,2013-10-12 00:22:00,
2013-10-11 19:27:00,70.5,40.1,29.95,SSW,195,0.0,4.0,51,0.00,,,0.00,meteohub,2013-10-12 00:27:00,
2013-10-11 19:32:00,70.3,39.9,29.95,SSE,163,0.0,4.0,51,0.00,,,0.00,meteohub,2013-10-12 00:32:00,
2013-10-11 19:37:00,70.0,39.6,29.95,SSE,163,0.0,4.0,51,0.00,,,0.00,meteohub,2013-10-12 00:37:00,
2013-10-11 19:42:00,69.6,39.9,29.95,SE,128,0.0,0.0,52,0.00,,,0.00,meteohub,2013-10-12 00:42:00,
2013-10-11 19:47:00,69.3,39.7,29.95,SE,128,0.0,0.0,52,0.00,,,0.00,meteohub,2013-10-12 00:47:00,
2013-10-11 19:52:00,68.9,39.4,29.95,SE,128,0.0,0.0,52,0.00,,,0.00,meteohub,2013-10-12 00:52:00,
2013-10-11 19:57:00,68.7,39.9,29.95,SE,128,0.0,0.0,53,0.00,,,0.00,meteohub,2013-10-12 00:57:00,
2013-10-11 20:02:00,68.4,39.6,29.95,SE,128,0.0,0.0,53,0.00,,,0.00,meteohub,2013-10-12 01:02:00,
2013-10-11 20:07:00,68.0,40.1,29.95,SE,128,0.0,0.0,54,0.00,,,0.00,meteohub,2013-10-12 01:07:00,
2013-10-11 20:12:00,67.8,39.9,29.95,SE,128,0.0,0.0,54,0.00,,,0.00,meteohub,2013-10-12 01:12:00,
2013-10-11 20:17:00,67.5,40.3,29.95,SE,128,0.0,0.0,55,0.00,,,0.00,meteohub,2013-10-12 01:17:00,
2013-10-11 20:22:00,67.3,40.8,29.98,SE,128,0.0,0.0,56,0.00,,,0.00,meteohub,2013-10-12 01:22:00,
2013-10-11 20:27:00,66.9,40.5,29.98,SE,128,0.0,0.0,56,0.00,,,0.00,meteohub,2013-10-12 01:27:00,
2013-10-11 20:32:00,66.7,41.0,29.98,SE,128,0.0,0.0,57,0.00,,,0.00,meteohub,2013-10-12 01:32:00,
2013-10-11 20:37:00,66.6,41.5,29.98,SE,128,0.0,0.0,58,0.00,,,0.00,meteohub,2013-10-12 01:37:00,
2013-10-11 20:42:00,66.4,41.4,29.98,SE,128,0.0,0.0,58,0.00,,,0.00,meteohub,2013-10-12 01:42:00,
2013-10-11 20:47:00,66.0,41.7,29.98,SE,128,0.0,0.0,59,0.00,,,0.00,meteohub,2013-10-12 01:47:00,
2013-10-11 20:52:00,65.8,42.1,29.98,SE,128,0.0,0.0,60,0.00,,,0.00,meteohub,2013-10-12 01:52:00,
2013-10-11 20:57:00,65.7,42.6,29.98,SE,128,0.0,0.0,61,0.00,,,0.00,meteohub,2013-10-12 01:57:00,
2013-10-11 21:02:00,65.5,42.4,29.98,SE,128,0.0,0.0,61,0.00,,,0.00,meteohub,2013-10-12 02:02:00,
2013-10-11 21:07:00,65.3,42.8,29.98,SE,128,0.0,0.0,62,0.00,,,0.00,meteohub,2013-10-12 02:07:00,
2013-10-11 21:12:00,65.1,42.6,29.98,SE,128,0.0,0.0,62,0.00,,,0.00,meteohub,2013-10-12 02:12:00,
2013-10-11 21:17:00,65.1,42.6,29.98,SE,128,0.0,0.0,62,0.00,,,0.00,meteohub,2013-10-12 02:17:00,
2013-10-11 21:22:00,64.9,43.2,29.98,SE,128,0.0,0.0,63,0.00,,,0.00,meteohub,2013-10-12 02:22:00,
2013-10-11 21:27:00,64.8,43.0,29.98,SE,128,0.0,0.0,63,0.00,,,0.00,meteohub,2013-10-12 02:27:00,
2013-10-11 21:32:00,64.6,43.3,29.98,SE,128,0.0,0.0,64,0.00,,,0.00,meteohub,2013-10-12 02:32:00,
2013-10-11 21:38:00,64.6,43.3,29.98,SE,128,0.0,0.0,64,0.00,,,0.00,meteohub,2013-10-12 02:38:00,
2013-10-11 21:43:00,64.4,43.7,29.98,SE,128,0.0,0.0,65,0.00,,,0.00,meteohub,2013-10-12 02:43:00,
2013-10-11 21:48:00,64.2,44.1,29.98,SE,128,0.0,0.0,66,0.00,,,0.00,meteohub,2013-10-12 02:48:00,
2013-10-11 21:53:00,64.2,44.1,29.98,SE,128,0.0,0.0,66,0.00,,,0.00,meteohub,2013-10-12 02:53:00,
2013-10-11 21:58:00,64.0,43.9,29.98,SE,128,0.0,0.0,66,0.00,,,0.00,meteohub,2013-10-12 02:58:00,
2013-10-11 22:03:00,63.9,44.2,29.98,SE,128,0.0,0.0,67,0.00,,,0.00,meteohub,2013-10-12 03:03:00,
2013-10-11 22:08:00,63.9,44.2,29.98,SE,128,0.0,0.0,67,0.00,,,0.00,meteohub,2013-10-12 03:08:00,
2013-10-11 22:13:00,63.7,44.2,29.98,SE,128,0.0,0.0,67,0.00,,,0.00,meteohub,2013-10-12 03:13:00,
2013-10-11 22:18:00,63.7,44.8,29.98,SE,128,0.0,0.0,68,0.00,,,0.00,meteohub,2013-10-12 03:18:00,
2013-10-11 22:23:00,63.7,44.8,29.98,SE,128,0.0,0.0,68,0.00,,,0.00,meteohub,2013-10-12 03:23:00,
2013-10-11 22:29:00,63.5,45.0,29.98,SE,128,0.0,0.0,69,0.00,,,0.00,meteohub,2013-10-12 03:29:00,
2013-10-11 22:34:00,63.5,45.0,29.98,SE,128,0.0,0.0,69,0.00,,,0.00,meteohub,2013-10-12 03:34:00,
2013-10-11 22:39:00,63.5,45.5,29.98,SE,128,0.0,0.0,70,0.00,,,0.00,meteohub,2013-10-12 03:39:00,
2013-10-11 22:44:00,63.5,45.5,29.98,SE,128,0.0,0.0,70,0.00,,,0.00,meteohub,2013-10-12 03:44:00,
2013-10-11 22:49:00,63.5,45.5,29.98,SE,128,0.0,0.0,70,0.00,,,0.00,meteohub,2013-10-12 03:49:00,
2013-10-11 22:54:00,63.5,45.5,29.98,SE,128,0.0,0.0,70,0.00,,,0.00,meteohub,2013-10-12 03:54:00,
2013-10-11 22:59:00,63.3,45.9,29.98,SE,128,0.0,0.0,71,0.00,,,0.00,meteohub,2013-10-12 03:59:00,
2013-10-11 23:01:00,63.3,45.9,29.98,SE,128,0.0,0.0,71,0.00,,,0.00,meteohub,2013-10-12 04:01:00,
2013-10-11 23:02:00,63.3,45.9,29.98,SE,128,0.0,0.0,71,0.00,,,0.00,meteohub,2013-10-12 04:02:00,
2013-10-11 23:05:00,63.3,45.9,29.98,SE,128,0.0,0.0,71,0.00,,,0.00,meteohub,2013-10-12 04:05:00,
2013-10-11 23:08:00,63.3,45.9,29.98,SE,128,0.0,0.0,71,0.00,,,0.00,meteohub,2013-10-12 04:08:00,
2013-10-11 23:13:00,63.1,46.2,29.98,SE,128,0.0,0.0,72,0.00,,,0.00,meteohub,2013-10-12 04:13:00,
2013-10-11 23:18:00,63.1,46.2,29.98,SE,128,0.0,0.0,72,0.00,,,0.00,meteohub,2013-10-12 04:18:00,
2013-10-11 23:23:00,63.1,46.2,29.98,SE,128,0.0,0.0,72,0.00,,,0.00,meteohub,2013-10-12 04:23:00,
2013-10-11 23:28:00,63.0,46.0,29.98,SE,128,0.0,0.0,72,0.00,,,0.00,meteohub,2013-10-12 04:28:00,
2013-10-11 23:33:00,63.0,46.6,29.98,SE,128,0.0,0.0,73,0.00,,,0.00,meteohub,2013-10-12 04:33:00,
2013-10-11 23:38:00,63.0,46.6,29.98,SE,128,0.0,0.0,73,0.00,,,0.00,meteohub,2013-10-12 04:38:00,
2013-10-11 23:43:00,63.0,46.9,29.98,SE,128,0.0,0.0,74,0.00,,,0.00,meteohub,2013-10-12 04:43:00,
2013-10-11 23:49:00,62.8,46.9,29.98,SE,128,0.0,0.0,74,0.00,,,0.00,meteohub,2013-10-12 04:49:00,
2013-10-11 23:54:00,62.8,47.3,29.98,SE,128,0.0,0.0,75,0.00,,,0.00,meteohub,2013-10-12 04:54:00,
2013-10-11 23:59:00,62.8,47.3,29.98,SE,128,0.0,0.0,75,0.00,,,0.00,meteohub,2013-10-12 04:59:00,